Location: Trout Lake
(45.9980°N, 121.5270°W)
Time: 19:13:10
(UTC-08:00)

Helios 1A - Pass Details

Date: 06 December 2023
Orbit: 569 x 584 km, 98.3° (Epoch: 21 February)

Event Time Altitude Azimuth Distance (km) Brightness Sun altitude
Exits shadow 18:38:16 13° 356° (N) 1,751 5.3 -23.0°
Maximum altitude 18:41:41 38° 291° (WNW) 898 4.3 -23.5°
Drops below altitude 10° 18:45:30 10° 223° (SW) 1,900 6.2 -24.2°
Sets 18:47:44 0° 215° (SW) 2,792 7.0 -24.6°
